Saginaw Browne, MI

11:59 PM EDT on April 23, 2017 (GMT -0400)
Saginaw County-Browne

Weather History for KHYX - January, 2013

Change the Weather History Date:

Tuesday, January 8, 2013

  Actual Average (KMBS) Record (KMBS)
Temperature  
Mean Temperature 32 °F -  
Max Temperature 37 °F 27 °F 55 °F (2008)
Min Temperature 28 °F 15 °F -2 °F (1999)
Degree Days  
Heating Degree Days 32    
Moisture  
Dew Point 26 °F    
Average Humidity 79    
Maximum Humidity 87    
Minimum Humidity 75    
Precipitation  
Precipitation 0.00 in - - ()
Sea Level Pressure  
Sea Level Pressure 30.14 in    
Wind  
Wind Speed 10 mph (SSW)    
Max Wind Speed 15 mph    
Max Gust Speed 18 mph    
Visibility 8 miles    
Events      
Averages and records for this station are not official NWS values.
T = Trace of Precipitation, MM = Missing Value Source: NWS Daily Summary

Daily Weather History Graph

Daily Weather History Graph

Search for Another Location

Airport or City:

Trip Planner

Search our weather history database for the weather conditions in past years. The results will help you decide how hot, cold, wet, or windy it might be!

Date:

Astronomy

Jan. 08, 2013 Rise Set
Actual Time 8:07 AM EST 5:17 PM EST
Civil Twilight 7:35 AM EST 5:49 PM EST
Nautical Twilight 6:59 AM EST 6:25 PM EST
Astronomical Twilight 6:25 AM EST 6:59 PM EST
Moon 4:39 AM EST (1/8) 2:18 PM EST (1/8)
Length of Visible Light 10h 13m
Length of Day
9h 09m
Waning Crescent, 14% of the Moon is Illuminated
Jan 8
Waning Crescent
Jan 11
New
Jan 18
First Quarter
Jan 26
Full
Feb 3
Last Quarter

Hourly Weather History & Observations

Time (EST) Temp. Windchill Dew Point Humidity Pressure Visibility Wind Dir Wind Speed Gust Speed Precip Events Conditions
12:15 AM 30.2 °F 20.8 °F 23.0 °F 75% 30.09 in 10.0 mi SW 11.5 mph - N/A   Clear
12:35 AM 30.2 °F 20.2 °F 23.0 °F 75% 30.08 in 10.0 mi SW 12.7 mph - N/A   Clear
12:50 AM 30.2 °F 21.3 °F 23.0 °F 75% 30.08 in 10.0 mi SW 10.4 mph - N/A   Clear
1:11 AM 30.2 °F 20.2 °F 23.0 °F 75% 30.08 in 10.0 mi SW 12.7 mph 18.4 mph N/A   Clear
1:31 AM 30.2 °F 20.2 °F 23.0 °F 75% 30.08 in 10.0 mi SW 12.7 mph - N/A   Clear
1:51 AM 30.2 °F 20.2 °F 23.0 °F 75% 30.09 in 10.0 mi SSW 12.7 mph - N/A   Clear
2:11 AM 30.2 °F 19.3 °F 23.0 °F 75% 30.09 in 10.0 mi SW 15.0 mph - N/A   Clear
2:31 AM 30.2 °F 20.2 °F 23.0 °F 75% 30.10 in 10.0 mi SW 12.7 mph - N/A   Clear
2:51 AM 30.2 °F 20.2 °F 23.0 °F 75% 30.10 in 10.0 mi SW 12.7 mph - N/A   Clear
3:11 AM 30.2 °F 20.8 °F 23.0 °F 75% 30.10 in 10.0 mi SW 11.5 mph - N/A   Clear
3:31 AM 30.2 °F 20.8 °F 23.0 °F 75% 30.11 in 10.0 mi SW 11.5 mph - N/A   Clear
3:51 AM 30.2 °F 21.9 °F 23.0 °F 75% 30.11 in 10.0 mi SW 9.2 mph - N/A   Clear
4:11 AM 30.2 °F 20.8 °F 23.0 °F 75% 30.10 in 10.0 mi SSW 11.5 mph - N/A   Clear
4:32 AM 30.2 °F 20.8 °F 23.0 °F 75% 30.11 in 10.0 mi SW 11.5 mph - N/A   Clear
4:52 AM 30.2 °F 20.8 °F 23.0 °F 75% 30.11 in 10.0 mi SW 11.5 mph - N/A   Clear
5:12 AM 28.4 °F 18.5 °F 23.0 °F 80% 30.11 in 10.0 mi SSW 11.5 mph - N/A   Clear
5:32 AM 28.4 °F 19.1 °F 23.0 °F 80% 30.11 in 10.0 mi SSW 10.4 mph - N/A   Clear
5:52 AM 30.2 °F 21.3 °F 23.0 °F 75% 30.12 in 10.0 mi SSW 10.4 mph - N/A   Scattered Clouds
6:12 AM 30.2 °F 21.3 °F 23.0 °F 75% 30.12 in 10.0 mi SSW 10.4 mph - N/A   Clear
6:32 AM 30.2 °F 20.8 °F 23.0 °F 75% 30.12 in 10.0 mi SSW 11.5 mph - N/A   Clear
6:52 AM 30.2 °F 21.9 °F 23.0 °F 75% 30.13 in 10.0 mi SSW 9.2 mph - N/A   Clear
7:13 AM 30.2 °F 21.9 °F 23.0 °F 75% 30.14 in 10.0 mi SW 9.2 mph - N/A   Clear
7:33 AM 30.2 °F 21.3 °F 24.8 °F 80% 30.14 in 10.0 mi SSW 10.4 mph - N/A   Clear
7:53 AM 30.2 °F 21.9 °F 23.0 °F 75% 30.14 in 10.0 mi SSW 9.2 mph - N/A   Clear
8:13 AM 28.4 °F 19.1 °F 24.8 °F 86% 30.15 in 7.0 mi SSW 10.4 mph - N/A   Clear
8:33 AM 30.2 °F 22.6 °F 24.8 °F 80% 30.17 in 7.0 mi SSW 8.1 mph - N/A   Clear
8:53 AM 30.2 °F 22.6 °F 24.8 °F 80% 30.17 in 7.0 mi SSW 8.1 mph - N/A   Clear
9:13 AM 30.2 °F 21.3 °F 24.8 °F 80% 30.17 in 7.0 mi SSW 10.4 mph - N/A   Clear
9:33 AM 30.2 °F 21.3 °F 24.8 °F 80% 30.18 in 7.0 mi SSW 10.4 mph - N/A   Clear
9:53 AM 30.2 °F 21.9 °F 24.8 °F 80% 30.18 in 7.0 mi SSW 9.2 mph - N/A   Clear
10:14 AM 32.0 °F 24.2 °F 24.8 °F 75% 30.19 in 7.0 mi SW 9.2 mph - N/A   Clear
10:34 AM 32.0 °F 23.6 °F 26.6 °F 80% 30.19 in 7.0 mi SSW 10.4 mph - N/A   Clear
10:54 AM 32.0 °F 23.6 °F 26.6 °F 80% 30.19 in 7.0 mi SW 10.4 mph - N/A   Clear
11:14 AM 32.0 °F 23.0 °F 26.6 °F 80% 30.19 in 7.0 mi SSW 11.5 mph - N/A   Clear
11:34 AM 32.0 °F 24.2 °F 26.6 °F 80% 30.19 in 7.0 mi SW 9.2 mph - N/A   Clear
11:54 AM 33.8 °F 27.0 °F 26.6 °F 75% 30.18 in 7.0 mi SW 8.1 mph - N/A   Clear
12:14 PM 33.8 °F 28.6 °F 28.4 °F 81% 30.17 in 7.0 mi SSW 5.8 mph - N/A   Clear
12:34 PM 33.8 °F 27.7 °F 28.4 °F 81% 30.17 in 7.0 mi SSW 6.9 mph - N/A   Clear
12:54 PM 35.6 °F 29.9 °F 28.4 °F 75% 30.17 in 7.0 mi SSW 6.9 mph - N/A   Clear
1:14 PM 35.6 °F 29.2 °F 28.4 °F 75% 30.17 in 7.0 mi SSW 8.1 mph - N/A   Clear
1:35 PM 35.6 °F 29.2 °F 30.2 °F 81% 30.16 in 7.0 mi SW 8.1 mph - N/A   Clear
1:55 PM 35.6 °F 30.7 °F 30.2 °F 81% 30.16 in 10.0 mi SW 5.8 mph - N/A   Clear
2:15 PM 37.4 °F 32.1 °F 30.2 °F 75% 30.15 in 7.0 mi SSW 6.9 mph - N/A   Clear
2:55 PM 37.4 °F 31.4 °F 30.2 °F 75% 30.16 in 10.0 mi SSW 8.1 mph - N/A   Clear
3:15 PM 37.4 °F 31.4 °F 30.2 °F 75% 30.16 in 10.0 mi South 8.1 mph - N/A   Clear
3:35 PM 35.6 °F 29.2 °F 28.4 °F 75% 30.17 in 10.0 mi South 8.1 mph - N/A   Clear
3:55 PM 35.6 °F 29.2 °F 28.4 °F 75% 30.17 in 7.0 mi SSW 8.1 mph - N/A   Clear
4:15 PM 35.6 °F 29.2 °F 28.4 °F 75% 30.17 in 7.0 mi South 8.1 mph - N/A   Clear
4:35 PM 33.8 °F 29.6 °F 28.4 °F 81% 30.17 in 7.0 mi South 4.6 mph - N/A   Clear
4:51 PM 33.8 °F 29.6 °F 28.4 °F 81% 30.17 in 7.0 mi South 4.6 mph - N/A   Clear
5:11 PM 32.0 °F 28.7 °F 28.4 °F 87% 30.17 in 7.0 mi South 3.5 mph - N/A   Clear
5:31 PM 32.0 °F - 28.4 °F 87% 30.17 in 7.0 mi Calm Calm - N/A   Clear
5:51 PM 32.0 °F - 28.4 °F 87% 30.17 in 7.0 mi Calm Calm - N/A   Clear
6:11 PM 32.0 °F 28.7 °F 28.4 °F 87% 30.17 in 7.0 mi SSE 3.5 mph - N/A   Clear
6:31 PM 32.0 °F 28.7 °F 28.4 °F 87% 30.16 in 7.0 mi SSE 3.5 mph - N/A   Clear
6:51 PM 32.0 °F 27.5 °F 28.4 °F 87% 30.16 in 7.0 mi SSE 4.6 mph - N/A   Clear
7:11 PM 32.0 °F 25.6 °F 28.4 °F 87% 30.15 in 7.0 mi SSE 6.9 mph - N/A   Clear
7:31 PM 32.0 °F 25.6 °F 28.4 °F 87% 30.15 in 7.0 mi South 6.9 mph - N/A   Clear
7:51 PM 32.0 °F 24.2 °F 28.4 °F 87% 30.15 in 7.0 mi South 9.2 mph - N/A   Clear
8:12 PM 32.0 °F 24.8 °F 26.6 °F 80% 30.14 in 7.0 mi South 8.1 mph - N/A   Clear
8:32 PM 32.0 °F 24.2 °F 26.6 °F 80% 30.14 in 7.0 mi South 9.2 mph - N/A   Clear
8:52 PM 32.0 °F 23.6 °F 26.6 °F 80% 30.14 in 7.0 mi South 10.4 mph - N/A   Clear
9:12 PM 32.0 °F 23.6 °F 26.6 °F 80% 30.13 in 7.0 mi South 10.4 mph - N/A   Clear
9:32 PM 32.0 °F 24.8 °F 26.6 °F 80% 30.12 in 7.0 mi South 8.1 mph - N/A   Clear
9:52 PM 32.0 °F 24.2 °F 26.6 °F 80% 30.12 in 7.0 mi South 9.2 mph - N/A   Clear
10:12 PM 32.0 °F 24.2 °F 26.6 °F 80% 30.13 in 7.0 mi South 9.2 mph - N/A   Clear
10:32 PM 32.0 °F 22.1 °F 26.6 °F 80% 30.12 in 7.0 mi South 13.8 mph - N/A   Clear
11:12 PM 32.0 °F 21.6 °F 26.6 °F 80% 30.11 in 7.0 mi South 15.0 mph 18.4 mph N/A   Clear
11:33 PM 32.0 °F 21.6 °F 26.6 °F 80% 30.10 in 7.0 mi South 15.0 mph - N/A   Clear